******** Week 364 almanac for PRN-1 ******** ID: 1 Health: 0 Eccentricity: 0.001676082611 Time of Applicability(s): 503808 Orbital Inclination(rad): 0.9578355803 Rate of Right Ascen(r/s): -8.057478483e-09 SQRT(A) (m 1/2): 5153.568359 Right Ascen at Week(rad): 2.633309843 Argument of Perigee(rad): 0.147569626 Mean Anom(rad): -2.972670885 Af0(s): 0.0002411757812 Af1(s/s): -7.275958e-12 week: 364 ******** Week 364 almanac for PRN-2 ******** ID: 2 Health: 0 Eccentricity: 0.0168299675 Time of Applicability(s): 503808 Orbital Inclination(rad): 0.9629228838 Rate of Right Ascen(r/s): -8.080336578e-09 SQRT(A) (m 1/2): 5153.527344 Right Ascen at Week(rad): 2.470923596 Argument of Perigee(rad): -0.7927976736 Mean Anom(rad): -1.458776032 Af0(s): 5.652557373e-05 Af1(s/s): 7.275958e-12 week: 364 ******** Week 364 almanac for PRN-3 ******** ID: 3 Health: 0 Eccentricity: 0.006625652313 Time of Applicability(s): 503808 Orbital Inclination(rad): 0.9939859947 Rate of Right Ascen(r/s): -7.360306586e-09 SQRT(A) (m 1/2): 5153.57373 Right Ascen at Week(rad): -2.662168231 Argument of Perigee(rad): 1.205107067 Mean Anom(rad): 1.237583942 Af0(s): 0.0004084914795 Af1(s/s): -1.455192e-11 week: 364 ******** Week 364 almanac for PRN-4 ******** ID: 4 Health: 0 Eccentricity: 0.003725528717 Time of Applicability(s): 503808 Orbital Inclination(rad): 0.9705628271 Rate of Right Ascen(r/s): -7.931758961e-09 SQRT(A) (m 1/2): 5153.660156 Right Ascen at Week(rad): -1.592294154 Argument of Perigee(rad): -2.871216182 Mean Anom(rad): -2.09005182 Af0(s): 4.069841309e-05 Af1(s/s): 0 week: 364 ******** Week 364 almanac for PRN-5 ******** ID: 5 Health: 0 Eccentricity: 0.00545835495 Time of Applicability(s): 503808 Orbital Inclination(rad): 0.9805157259 Rate of Right Ascen(r/s): -7.474597061e-09 SQRT(A) (m 1/2): 5153.682617 Right Ascen at Week(rad): -2.722300578 Argument of Perigee(rad): 1.418462598 Mean Anom(rad): -1.419293629 Af0(s): -0.0001823891846 Af1(s/s): 0 week: 364 ******** Week 364 almanac for PRN-6 ******** ID: 6 Health: 0 Eccentricity: 0.00380563736 Time of Applicability(s): 503808 Orbital Inclination(rad): 0.9866516491 Rate of Right Ascen(r/s): -7.806039438e-09 SQRT(A) (m 1/2): 5153.609375 Right Ascen at Week(rad): 2.584736656 Argument of Perigee(rad): -0.5378404043 Mean Anom(rad): 2.52547429 Af0(s): -0.0004838589111 Af1(s/s): 0 week: 364 ******** Week 364 almanac for PRN-7 ******** ID: 7 Health: 0 Eccentricity: 0.02068138123 Time of Applicability(s): 503808 Orbital Inclination(rad): 0.9510405248 Rate of Right Ascen(r/s): -7.966046103e-09 SQRT(A) (m 1/2): 5153.556641 Right Ascen at Week(rad): -0.5834804523 Argument of Perigee(rad): -1.981505078 Mean Anom(rad): 1.687619301 Af0(s): -0.000133400354 Af1(s/s): -3.637979e-12 week: 364 ******** Week 364 almanac for PRN-8 ******** ID: 8 Health: 0 Eccentricity: 0.01160097122 Time of Applicability(s): 503808 Orbital Inclination(rad): 0.9428792676 Rate of Right Ascen(r/s): -8.388920861e-09 SQRT(A) (m 1/2): 5153.643555 Right Ascen at Week(rad): 1.462694125 Argument of Perigee(rad): 0.5336736391 Mean Anom(rad): -1.782354973 Af0(s): 0.000369300415 Af1(s/s): -7.275958e-12 week: 364 ******** Week 364 almanac for PRN-9 ******** ID: 9 Health: 0 Eccentricity: 0.003345489502 Time of Applicability(s): 503808 Orbital Inclination(rad): 0.9647804386 Rate of Right Ascen(r/s): -7.977475151e-09 SQRT(A) (m 1/2): 5153.699707 Right Ascen at Week(rad): -1.656781269 Argument of Perigee(rad): 2.057495924 Mean Anom(rad): -1.187059948 Af0(s): 0.0006029394531 Af1(s/s): -3.637979e-12 week: 364 ******** Week 364 almanac for PRN-10 ******** ID: 10 Health: 0 Eccentricity: 0.01093244553 Time of Applicability(s): 503808 Orbital Inclination(rad): 0.9935066257 Rate of Right Ascen(r/s): -7.337448491e-09 SQRT(A) (m 1/2): 5153.613281 Right Ascen at Week(rad): -2.664677429 Argument of Perigee(rad): -2.256306726 Mean Anom(rad): 0.2434700152 Af0(s): -0.0004665244019 Af1(s/s): 0 week: 364 ******** Week 364 almanac for PRN-11 ******** ID: 11 Health: 0 Eccentricity: 0.002206802368 Time of Applicability(s): 503808 Orbital Inclination(rad): 0.9635280871 Rate of Right Ascen(r/s): -8.046049436e-09 SQRT(A) (m 1/2): 5153.539551 Right Ascen at Week(rad): 2.602820852 Argument of Perigee(rad): -2.322007243 Mean Anom(rad): -2.609373601 Af0(s): -0.0003044844238 Af1(s/s): 1.455192e-11 week: 364 ******** Week 364 almanac for PRN-12 ******** ID: 12 Health: 0 Eccentricity: 0.008937835693 Time of Applicability(s): 503808 Orbital Inclination(rad): 0.9594414664 Rate of Right Ascen(r/s): -7.714607058e-09 SQRT(A) (m 1/2): 5153.714844 Right Ascen at Week(rad): 0.5340923379 Argument of Perigee(rad): 1.56931665 Mean Anom(rad): 0.9959782227 Af0(s): -0.0004808442139 Af1(s/s): 0 week: 364 ******** Week 364 almanac for PRN-13 ******** ID: 13 Health: 0 Eccentricity: 0.01008844376 Time of Applicability(s): 503808 Orbital Inclination(rad): 0.9761055312 Rate of Right Ascen(r/s): -7.931758961e-09 SQRT(A) (m 1/2): 5153.612305 Right Ascen at Week(rad): -1.481191401 Argument of Perigee(rad): 0.9945932957 Mean Anom(rad): -2.014960914 Af0(s): 0.0005381234619 Af1(s/s): 0 week: 364 ******** Week 364 almanac for PRN-14 ******** ID: 14 Health: 0 Eccentricity: 0.006890296936 Time of Applicability(s): 503808 Orbital Inclination(rad): 0.9427893859 Rate of Right Ascen(r/s): -7.851755628e-09 SQRT(A) (m 1/2): 5153.611816 Right Ascen at Week(rad): 0.4789667759 Argument of Perigee(rad): -2.733972464 Mean Anom(rad): 0.8569889273 Af0(s): 0.0005863586182 Af1(s/s): 0 week: 364 ******** Week 364 almanac for PRN-15 ******** ID: 15 Health: 0 Eccentricity: 0.01664066315 Time of Applicability(s): 503808 Orbital Inclination(rad): 0.9427833938 Rate of Right Ascen(r/s): -8.171768958e-09 SQRT(A) (m 1/2): 5153.646973 Right Ascen at Week(rad): -1.801649575 Argument of Perigee(rad): 1.507731216 Mean Anom(rad): -2.777846711 Af0(s): 0.0003157895386 Af1(s/s): 3.637979e-12 week: 364 ******** Week 364 almanac for PRN-16 ******** ID: 16 Health: 0 Eccentricity: 0.01501607895 Time of Applicability(s): 503808 Orbital Inclination(rad): 0.9585426496 Rate of Right Ascen(r/s): -7.726036106e-09 SQRT(A) (m 1/2): 5153.621582 Right Ascen at Week(rad): 0.5510084459 Argument of Perigee(rad): 0.9316836051 Mean Anom(rad): -0.740893621 Af0(s): 0.0001884185791 Af1(s/s): 7.275958e-12 week: 364 ******** Week 364 almanac for PRN-17 ******** ID: 17 Health: 0 Eccentricity: 0.01261854172 Time of Applicability(s): 503808 Orbital Inclination(rad): 0.9584887206 Rate of Right Ascen(r/s): -8.251772291e-09 SQRT(A) (m 1/2): 5153.556152 Right Ascen at Week(rad): 1.567945205 Argument of Perigee(rad): -1.115796503 Mean Anom(rad): -1.828765757 Af0(s): -8.215050049e-05 Af1(s/s): -1.091394e-11 week: 364 ******** Week 364 almanac for PRN-18 ******** ID: 18 Health: 0 Eccentricity: 0.005816936493 Time of Applicability(s): 503808 Orbital Inclination(rad): 0.9716054547 Rate of Right Ascen(r/s): -7.943188008e-09 SQRT(A) (m 1/2): 5153.584473 Right Ascen at Week(rad): 2.57924863 Argument of Perigee(rad): -2.870910584 Mean Anom(rad): 2.471428806 Af0(s): -0.0003044844238 Af1(s/s): 1.091394e-11 week: 364 ******** Week 364 almanac for PRN-19 ******** ID: 19 Health: 0 Eccentricity: 0.01126289368 Time of Applicability(s): 503808 Orbital Inclination(rad): 0.9576438327 Rate of Right Ascen(r/s): -8.286059433e-09 SQRT(A) (m 1/2): 5153.672852 Right Ascen at Week(rad): 1.611835182 Argument of Perigee(rad): 2.94588427 Mean Anom(rad): -0.04987122844 Af0(s): 0.000550182251 Af1(s/s): 0 week: 364 ******** Week 364 almanac for PRN-20 ******** ID: 20 Health: 0 Eccentricity: 0.002230167389 Time of Applicability(s): 503808 Orbital Inclination(rad): 0.9601784963 Rate of Right Ascen(r/s): -8.057478483e-09 SQRT(A) (m 1/2): 5153.697754 Right Ascen at Week(rad): -1.651327697 Argument of Perigee(rad): -1.944121786 Mean Anom(rad): 0.9327340973 Af0(s): 7.009171143e-05 Af1(s/s): 2.182787e-11 week: 364 ******** Week 364 almanac for PRN-21 ******** ID: 21 Health: 0 Eccentricity: 0.0008187294006 Time of Applicability(s): 503808 Orbital Inclination(rad): 0.9633782843 Rate of Right Ascen(r/s): -7.646032773e-09 SQRT(A) (m 1/2): 5153.737793 Right Ascen at Week(rad): -2.65688918 Argument of Perigee(rad): -0.2349364981 Mean Anom(rad): 0.6173583581 Af0(s): 0.000326340979 Af1(s/s): 3.637979e-12 week: 364 ******** Week 364 almanac for PRN-22 ******** ID: 22 Health: 0 Eccentricity: 0.01203632355 Time of Applicability(s): 503808 Orbital Inclination(rad): 0.9579973673 Rate of Right Ascen(r/s): -7.726036106e-09 SQRT(A) (m 1/2): 5153.581543 Right Ascen at Week(rad): 0.5543640289 Argument of Perigee(rad): -0.9926518513 Mean Anom(rad): -1.181605627 Af0(s): -1.884185791e-05 Af1(s/s): 7.275958e-12 week: 364 ******** Week 364 almanac for PRN-23 ******** ID: 23 Health: 0 Eccentricity: 0.006086826324 Time of Applicability(s): 503808 Orbital Inclination(rad): 0.9884972197 Rate of Right Ascen(r/s): -7.394593729e-09 SQRT(A) (m 1/2): 5153.67041 Right Ascen at Week(rad): -2.696899264 Argument of Perigee(rad): -2.739282974 Mean Anom(rad): 1.314585209 Af0(s): 0.0004996860718 Af1(s/s): 3.637979e-12 week: 364 ******** Week 364 almanac for PRN-24 ******** ID: 24 Health: 0 Eccentricity: 0.01797676086 Time of Applicability(s): 503808 Orbital Inclination(rad): 0.9349816634 Rate of Right Ascen(r/s): -8.217485148e-09 SQRT(A) (m 1/2): 5153.58252 Right Ascen at Week(rad): -0.6925530028 Argument of Perigee(rad): 1.139533508 Mean Anom(rad): 2.670081939 Af0(s): -4.14520874e-05 Af1(s/s): 1.818989e-11 week: 364 ******** Week 364 almanac for PRN-25 ******** ID: 25 Health: 0 Eccentricity: 0.01289653778 Time of Applicability(s): 503808 Orbital Inclination(rad): 0.9478407367 Rate of Right Ascen(r/s): -7.817468486e-09 SQRT(A) (m 1/2): 5153.667969 Right Ascen at Week(rad): 0.4399472631 Argument of Perigee(rad): 1.159148313 Mean Anom(rad): 0.8798327325 Af0(s): 0.0003421681396 Af1(s/s): -3.637979e-12 week: 364 ******** Week 364 almanac for PRN-26 ******** ID: 26 Health: 0 Eccentricity: 0.01102352142 Time of Applicability(s): 503808 Orbital Inclination(rad): 0.9286240321 Rate of Right Ascen(r/s): -7.966046103e-09 SQRT(A) (m 1/2): 5153.686523 Right Ascen at Week(rad): 0.3648522373 Argument of Perigee(rad): 0.7113922043 Mean Anom(rad): 0.05805720307 Af0(s): -0.0002758447998 Af1(s/s): -3.637979e-12 week: 364 ******** Week 364 almanac for PRN-27 ******** ID: 27 Health: 0 Eccentricity: 0.01438331604 Time of Applicability(s): 503808 Orbital Inclination(rad): 0.9519633101 Rate of Right Ascen(r/s): -8.320346576e-09 SQRT(A) (m 1/2): 5153.613281 Right Ascen at Week(rad): 1.495018201 Argument of Perigee(rad): 0.8901957165 Mean Anom(rad): -1.675233604 Af0(s): -7.310640869e-05 Af1(s/s): -1.455192e-11 week: 364 ******** Week 364 almanac for PRN-28 ******** ID: 28 Health: 0 Eccentricity: 0.000382900238 Time of Applicability(s): 503808 Orbital Inclination(rad): 0.9619521615 Rate of Right Ascen(r/s): -7.908900866e-09 SQRT(A) (m 1/2): 5153.506348 Right Ascen at Week(rad): -0.6088671602 Argument of Perigee(rad): -0.3071661706 Mean Anom(rad): 2.309024207 Af0(s): -0.000445421521 Af1(s/s): 7.275958e-12 week: 364 ******** Week 364 almanac for PRN-29 ******** ID: 29 Health: 0 Eccentricity: 0.003455638885 Time of Applicability(s): 503808 Orbital Inclination(rad): 0.9611432264 Rate of Right Ascen(r/s): -8.240343243e-09 SQRT(A) (m 1/2): 5153.687988 Right Ascen at Week(rad): 1.584769934 Argument of Perigee(rad): 2.750881831 Mean Anom(rad): -1.831231886 Af0(s): -0.0002743374512 Af1(s/s): 7.275958e-12 week: 364 ******** Week 364 almanac for PRN-30 ******** ID: 30 Health: 0 Eccentricity: 0.008167266846 Time of Applicability(s): 503808 Orbital Inclination(rad): 0.9362999281 Rate of Right Ascen(r/s): -8.148910863e-09 SQRT(A) (m 1/2): 5153.681152 Right Ascen at Week(rad): -0.5929423724 Argument of Perigee(rad): -2.296787565 Mean Anom(rad): 1.477824958 Af0(s): 0.0001386760742 Af1(s/s): 1.455192e-11 week: 364 ******** Week 364 almanac for PRN-31 ******** ID: 31 Health: 0 Eccentricity: 0.01083183289 Time of Applicability(s): 503808 Orbital Inclination(rad): 0.9548155556 Rate of Right Ascen(r/s): -7.954617056e-09 SQRT(A) (m 1/2): 5153.527344 Right Ascen at Week(rad): -0.5591228897 Argument of Perigee(rad): 0.9413631137 Mean Anom(rad): 0.6041240287 Af0(s): -0.0001243562622 Af1(s/s): 3.637979e-12 week: 364 ******** Week 364 almanac for PRN-32 ******** ID: 32 Health: 0 Eccentricity: 0.009386062622 Time of Applicability(s): 503808 Orbital Inclination(rad): 0.9677944712 Rate of Right Ascen(r/s): -7.966046103e-09 SQRT(A) (m 1/2): 5153.685547 Right Ascen at Week(rad): -1.639666297 Argument of Perigee(rad): -1.985559491 Mean Anom(rad): -1.11985204 Af0(s): -1.281246338e-05 Af1(s/s): 1.818989e-11 week: 364